This is the latest recevied weather packets stored in our database for station/object KC5TIL-3. If no packets are shown the sender has not sent any weather packets the latest 10 day(s).
| Time | Temp. | Humidity | Pressure | Rain* | Wind** | Luminosity | Snow |
|---|---|---|---|---|---|---|---|
| 1777955033 | 24.44° C | 36% | 1003.8 hPa | 0 mm | 5.36 m/s, 210° | - | - |
| 1777954735 | 24.44° C | 36% | 1003.8 hPa | 0 mm | 5.36 m/s, 200° | - | - |
| 1777954436 | 24.44° C | 37% | 1003.8 hPa | 0 mm | 4.02 m/s, 139° | - | - |
| 1777954135 | 24.44° C | 37% | 1003.8 hPa | 0 mm | 3.13 m/s, 191° | - | - |
| 1777953837 | 24.44° C | 37% | 1003.8 hPa | 0 mm | 4.02 m/s, 193° | - | - |
| 1777953539 | 24.44° C | 36% | 1003.8 hPa | 0 mm | 4.02 m/s, 210° | - | - |
| 1777953237 | 24.44° C | 36% | 1003.8 hPa | 0 mm | 3.58 m/s, 172° | - | - |
| 1777952340 | 24.44° C | 36% | 1003.8 hPa | 0 mm | 3.58 m/s, 227° | - | - |
| 1777952041 | 24.44° C | 36% | 1003.8 hPa | 0 mm | 4.02 m/s, 191° | - | - |
| 1777951743 | 24.44° C | 36% | 1003.8 hPa | 0 mm | 3.13 m/s, 184° | - | - |
| 1777951442 | 24.44° C | 37% | 1003.8 hPa | 0 mm | 3.58 m/s, 185° | - | - |
| 1777951145 | 24.44° C | 36% | 1003.8 hPa | 0 mm | 3.58 m/s, 143° | - | - |
| 1777950846 | 24.44° C | 36% | 1003.8 hPa | 0 mm | 2.68 m/s, 140° | - | - |
| 1777950544 | 24.44° C | 36% | 1003.8 hPa | 0 mm | 3.13 m/s, 220° | - | - |
| 1777950247 | 24.44° C | 36% | 1003.8 hPa | 0 mm | 3.13 m/s, 194° | - | - |
| 1777949948 | 24.44° C | 36% | 1003.8 hPa | 0 mm | 2.68 m/s, 236° | - | - |
| 1777949647 | 24.44° C | 35% | 1003.8 hPa | 0 mm | 3.13 m/s, 188° | - | - |
| 1777949349 | 24.44° C | 35% | 1003.8 hPa | 0 mm | 3.13 m/s, 216° | - | - |
| 1777948452 | 24.44° C | 35% | 1003.8 hPa | 0 mm | 2.24 m/s, 223° | - | - |
| 1777948153 | 24.44° C | 35% | 1003.8 hPa | 0 mm | 3.58 m/s, 235° | - | - |
| 1777947851 | 24.44° C | 35% | 1003.8 hPa | 0 mm | 3.13 m/s, 227° | - | - |
| 1777947553 | 24.44° C | 35% | 1003.8 hPa | 0 mm | 3.13 m/s, 150° | - | - |
| 1777947255 | 24.44° C | 35% | 1003.8 hPa | 0 mm | 4.47 m/s, 132° | - | - |
| 1777946949 | 24.44° C | 34% | 1003.8 hPa | 0 mm | 3.58 m/s, 231° | - | - |
| 1777946646 | 24.44° C | 34% | 1003.8 hPa | 0 mm | 3.13 m/s, 129° | - | - |
* Rain latest hour (hover to see other rain measurements)
** Current wind speed in m/s (hover to see current wind gust speed)